Date String (YYYY-MM-DD hh:mm:ss) UTC,Instrument flags,absolute air pressure of the measurement (hPa),sample flow rate (lpm),inlet stack bypass flow (lpm),air temperature of the measurement (°C),ambient temperature measured by the external sensor (°C),aerosol sample conditioner tube jacket temperature (°C),OPC LED temperature (°C),internal box temperature (°C),relative humidity of the measurement (%),span deviation,mass concentration of particles derived from Lorenz-Mie calculation of OPC scattering (μg/m³),mass concentration of particles derived from Lorenz-Mie calculation of OPC scattering (μg/m³),mass concentration of particles derived from Lorenz-Mie calculation of OPC scattering (μg/m³)
DateTimeUTC,F1_M11,P_M11,Q1_M11,Q2_M11,T1_M11,T2_M11,T3_M11,T4_M11,T5_M11,U1_M11,ZSPAN_M11,X0_M11,X2_M11,X1_M11
2023-08-08 10:00:00,SystemResetWarning,0832.7,5.00,000.00,030.0,028.6,000.0,038.7,031.6,25.4,0000.0,0010.08,0004.78,0004.17
2023-08-08 10:01:00,SystemResetWarning,0832.7,5.01,000.00,030.0,028.6,000.0,038.7,031.6,24.9,0000.0,0009.72,0004.81,0004.18
2023-08-08 10:02:00,SystemResetWarning,0832.7,5.00,000.00,030.1,028.6,000.0,038.7,031.6,24.8,0000.0,0009.46,0004.81,0004.19
2023-08-08 10:03:00,SystemResetWarning,0832.6,5.00,000.00,030.1,028.7,000.0,038.7,031.6,24.7,0000.0,0009.50,0004.82,0004.18
2023-08-08 10:04:00,SystemResetWarning,0832.7,5.00,000.00,030.1,028.7,000.0,038.7,031.6,25.0,-000.0,0010.10,0004.86,0004.19
2023-08-08 10:05:00,SystemResetWarning,0832.6,5.00,000.00,030.1,028.7,000.0,038.8,031.6,25.2,0000.1,0010.26,0004.97,0004.22
2023-08-08 10:06:00,SystemResetWarning,0832.6,5.00,000.00,030.1,028.7,000.0,038.8,031.6,25.0,0000.0,0010.21,0005.00,0004.24
2023-08-08 10:07:00,SystemResetWarning,0832.6,5.00,000.00,030.1,028.7,000.0,038.8,031.6,24.8,0000.0,0011.10,0005.04,0004.27
2023-08-08 10:08:00,SystemResetWarning,0832.6,5.00,000.00,030.1,028.7,000.0,038.8,031.6,24.5,0000.0,0011.06,0005.09,0004.30
2023-08-08 10:09:00,SystemResetWarning,0832.5,5.00,000.00,030.1,028.7,000.0,038.8,031.6,24.1,0000.0,0011.35,0005.16,0004.35
2023-08-08 10:10:00,SystemResetWarning,0832.5,5.00,000.00,030.1,028.7,000.0,038.8,031.6,24.4,0000.4,0011.68,0005.20,0004.41
2023-08-08 10:11:00,SystemResetWarning,0832.5,5.00,000.00,030.1,028.7,000.0,038.8,031.6,23.9,0000.6,0011.80,0005.29,0004.48
2023-08-08 10:12:00,SystemResetWarning,0832.5,5.00,000.00,030.1,028.7,000.0,038.8,031.6,23.7,0000.2,0011.97,0005.34,0004.53
2023-08-08 10:13:00,SystemResetWarning,0832.6,5.01,000.00,030.1,028.7,000.0,038.8,031.7,24.3,-000.1,0012.06,0005.42,0004.59
2023-08-08 10:14:00,SystemResetWarning,0832.5,5.01,000.00,030.1,028.7,000.0,038.8,031.7,24.5,-000.4,0012.48,0005.49,0004.66
2023-08-08 10:15:00,SystemResetWarning,0832.6,5.00,000.00,030.1,028.7,000.0,038.8,031.7,24.9,-000.9,0012.06,0005.50,0004.72
2023-08-08 10:16:00,SystemResetWarning,0832.5,5.00,000.00,030.1,028.7,000.0,038.8,031.6,25.2,-000.8,0011.84,0005.53,0004.77
2023-08-08 10:17:00,SystemResetWarning,0832.5,5.00,000.00,030.1,028.7,000.0,038.8,031.6,25.2,-000.4,0012.04,0005.58,0004.81
2023-08-08 10:18:00,SystemResetWarning,0832.5,4.98,000.00,030.1,027.2,000.0,038.7,031.5,25.2,-000.1,0011.94,0005.61,0004.85
2023-08-08 10:19:00,SystemResetWarning,0832.4,5.01,000.00,030.0,025.4,000.0,038.5,031.2,25.4,-000.1,0011.83,0005.66,0004.88
2023-08-08 10:20:00,SystemResetWarning,0832.4,5.01,000.00,029.9,025.1,000.0,038.5,030.9,25.5,-000.0,0012.14,0005.66,0004.91
2023-08-08 10:21:00,SystemResetWarning,0832.3,4.99,000.00,029.8,025.3,000.0,038.5,030.7,25.9,0000.3,0011.64,0005.70,0004.91
2023-08-08 10:22:00,SystemResetWarning,0832.3,4.99,000.00,029.7,025.8,000.0,038.5,030.8,26.0,0000.6,0011.90,0005.74,0004.92
2023-08-08 10:23:00,SystemResetWarning,0832.3,5.00,000.00,029.6,026.2,000.0,038.5,030.9,26.1,0000.4,0012.49,0005.80,0004.92
2023-08-08 10:24:00,SystemResetWarning,0832.3,5.01,000.00,029.6,026.6,000.0,038.4,030.9,26.1,0000.0,0012.10,0005.80,0004.93
2023-08-08 10:25:00,SystemResetWarning,0832.2,4.99,000.00,029.6,026.9,000.0,038.4,031.0,26.2,0000.0,0011.74,0005.81,0004.91
2023-08-08 10:26:00,SystemResetWarning,0832.2,4.99,000.00,029.6,027.2,000.0,038.4,031.0,26.3,0000.0,0011.73,0005.80,0004.88
2023-08-08 10:27:00,SystemResetWarning,0832.2,5.01,000.00,029.6,027.4,000.0,038.4,031.0,26.5,0000.0,0011.78,0005.77,0004.87
2023-08-08 10:28:00,SystemResetWarning,0832.2,5.01,000.00,029.6,027.5,000.0,038.4,031.0,26.6,0000.0,0011.97,0005.74,0004.87
2023-08-08 10:29:00,SystemResetWarning,0832.2,5.00,000.00,029.6,027.7,000.0,038.4,031.1,26.6,0000.0,0011.59,0005.77,0004.87
2023-08-08 10:30:00,SystemResetWarning,0832.2,5.00,000.00,029.6,027.8,000.0,038.4,031.1,26.7,0000.0,0011.52,0005.76,0004.84
2023-08-08 10:31:00,SystemResetWarning,0832.2,5.00,000.00,029.6,027.9,000.0,038.3,031.1,26.9,0000.0,0012.02,0005.74,0004.82
2023-08-08 10:32:00,SystemResetWarning,0832.2,5.00,000.00,029.6,028.0,000.0,038.3,031.1,26.9,0000.0,0012.67,0005.73,0004.80
2023-08-08 10:33:00,SystemResetWarning,0832.1,5.00,000.00,029.6,028.1,000.0,038.3,031.1,26.9,0000.0,0012.62,0005.71,0004.80
2023-08-08 10:34:00,SystemResetWarning,0832.2,5.00,000.00,029.6,028.1,000.0,038.3,031.2,26.9,0000.0,0012.29,0005.66,0004.77
2023-08-08 10:35:00,SystemResetWarning,0832.2,5.01,000.00,029.6,028.2,000.0,038.3,031.2,26.9,0000.0,0012.29,0005.61,0004.75
2023-08-08 10:36:00,SystemResetWarning,0832.1,5.00,000.00,029.6,028.2,000.0,038.3,031.2,26.9,0000.0,0013.23,0005.60,0004.73
2023-08-08 10:37:00,SystemResetWarning,0832.1,5.00,000.00,029.7,028.2,000.0,038.3,031.2,26.8,0000.0,0013.71,0005.62,0004.72
2023-08-08 10:38:00,SystemResetWarning,0832.1,5.00,000.00,029.7,028.3,000.0,038.3,031.2,26.8,0000.0,0013.90,0005.67,0004.71
2023-08-08 10:39:00,SystemResetWarning,0832.0,5.01,000.00,029.7,028.3,000.0,038.3,031.2,26.8,0000.0,0013.91,0005.75,0004.71
2023-08-08 10:40:00,SystemResetWarning,0832.0,5.00,000.00,029.7,028.3,000.0,038.3,031.2,26.9,0000.0,0013.77,0005.74,0004.70
2023-08-08 10:41:00,SystemResetWarning,0832.0,5.00,000.00,029.7,028.3,000.0,038.3,031.2,27.0,0000.0,0013.93,0005.76,0004.71
2023-08-08 10:42:00,SystemResetWarning,0832.1,5.00,000.00,029.7,028.3,000.0,038.3,031.3,27.0,0000.0,0013.86,0005.77,0004.73
2023-08-08 10:43:00,SystemResetWarning,0832.1,4.99,000.00,029.7,028.3,000.0,038.4,031.3,26.9,0000.0,0013.34,0005.84,0004.75
2023-08-08 10:44:00,SystemResetWarning,0832.1,5.00,000.00,029.7,028.4,000.0,038.4,031.3,26.9,0000.0,0013.90,0005.91,0004.79
2023-08-08 10:45:00,SystemResetWarning,0832.1,5.00,000.00,029.7,028.4,000.0,038.4,031.3,26.9,0000.0,0015.17,0005.94,0004.81
2023-08-08 10:46:00,SystemResetWarning,0832.1,5.00,000.00,029.7,028.4,000.0,038.4,031.3,26.6,0000.0,0015.23,0005.98,0004.84
2023-08-08 10:47:00,SystemResetWarning,0832.0,4.99,000.00,029.7,028.4,000.0,038.4,031.3,26.5,0000.0,0014.55,0006.03,0004.87
2023-08-08 10:48:00,SystemResetWarning,0832.0,4.99,000.00,029.8,028.4,000.0,038.4,031.3,26.5,0000.0,0014.74,0006.04,0004.89
2023-08-08 10:49:00,SystemResetWarning,0832.0,5.00,000.00,029.8,028.3,000.0,038.4,031.3,26.5,0000.0,0015.11,0006.03,0004.92
2023-08-08 10:50:00,SystemResetWarning,0832.1,5.01,000.00,029.8,028.3,000.0,038.4,031.3,26.4,0000.0,0015.07,0006.00,0004.93
2023-08-08 10:51:00,SystemResetWarning,0832.1,5.01,000.00,029.8,028.4,000.0,038.4,031.3,26.4,0000.0,0015.32,0006.01,0004.95
2023-08-08 10:52:00,SystemResetWarning,0832.1,5.00,000.00,029.8,028.4,000.0,038.4,031.3,25.9,0000.0,0016.16,0006.01,0004.96
2023-08-08 10:53:00,SystemResetWarning,0832.0,5.00,000.00,029.8,028.3,000.0,038.4,031.3,25.3,0000.0,0015.63,0006.08,0004.98
2023-08-08 10:54:00,SystemResetWarning,0832.0,5.00,000.00,029.8,028.3,000.0,038.4,031.3,24.2,-000.4,0015.22,0006.03,0004.98
2023-08-08 10:55:00,SystemResetWarning,0832.0,5.00,000.00,029.8,028.3,000.0,038.4,031.3,24.2,-000.3,0014.53,0005.99,0004.98
2023-08-08 10:56:00,SystemResetWarning,0832.0,5.00,000.00,029.8,028.3,000.0,038.4,031.3,24.3,-000.1,0013.54,0006.00,0004.99
2023-08-08 10:57:00,SystemResetWarning,0832.0,5.00,000.00,029.8,028.3,000.0,038.4,031.3,24.0,0000.6,0013.47,0006.01,0005.01
2023-08-08 10:58:00,SystemResetWarning,0832.0,4.99,000.00,029.8,028.3,000.0,038.4,031.3,23.2,0000.7,0013.12,0006.00,0005.03
2023-08-08 10:59:00,SystemResetWarning,0831.9,5.00,000.00,029.8,028.3,000.0,038.4,031.3,23.7,0000.8,0012.76,0005.95,0005.04
